sat.trackr.live / text

‹ back to catalog

STARLINK-34369

NORAD 64297 · 2025-123G

PAYLOAD ACTIVE UNKNOWN

§ Identity

Operator
Country
US
Launch date
2025-06-08
Launch site
AFWTR
Launch vehicle
Mass (kg)
RCS (m²)

Purposes: comms

External: N2YO · Heavens-Above · Gunter

§ Orbital elements

Epoch: 2026-09-20T16:32:09.269952Z

Period
94.14 min
Inclination
70.0010°
Eccentricity
0.0003350
Mean motion
15.29581986 rev/d
Perigee alt
474.8 km
Apogee alt
479.4 km
Semi-major
6,855.2 km
B*
3.7216e-4
RAAN
60.5575°
Arg perigee
272.2865°
Mean anomaly
87.7926°
Rev number
7,088

§ Raw data

STARLINK-343691 64297U 25123G   26263.68899618  .00010586  00000+0  37216-3 0  99962 64297  70.0010  60.5575 0003350 272.2865  87.7926 15.29581986 70885

JSON: /api/v1/satellites/64297 · /tle

For live sub-satellite position, see the globe view (requires WebGL).

§ Visibility from observer

Set your observer location to see the next 7 days of passes ≥ 10°. The values pass through the URL so the page stays shareable.

No JS? Fill the form by hand. The geolocation button needs JavaScript.